Simultaneous Nadir Overpasses (SNOs) Predictions

Prediction of SNOs between AQUA and METOP-A Satellite Orbit:

Table of predicted SNOs for the next 14.0 days since TLE Epoch: 1/26/2017
Index Date (AQUA) Time (AQUA) Lat,Lon (AQUA) SZA (AQUA ) Date (METOP-A) Time (METOP-A) Lat,Lon (METOP-A) SZA (METOP-A ) Distance(km) Time Diff (sec)
1 01/27/2017 21:04:16 73.32,-140.88 91.61 01/27/2017 21:03:08 73.25,-143.03 91.65 69.08 68
2 01/27/2017 21:53:51 -73.83, 25.68 87.85 01/27/2017 21:53:38 -73.82, 25.61 87.86 2.21 13
3 01/27/2017 22:43:20 73.89,-166.83 92.21 01/27/2017 22:44:17 73.88,-166.92 92.19 3.35 57
4 01/30/2017 16:38:36 73.50, -74.82 91.05 01/30/2017 16:37:26 73.44, -76.20 91.06 44.00 70
5 01/30/2017 17:28:08 -73.85, 92.07 88.59 01/30/2017 17:27:59 -73.86, 92.12 88.58 1.95 9
6 01/30/2017 18:17:37 73.91,-100.44 91.48 01/30/2017 18:18:38 73.91,-100.42 91.47 0.66 61
7 02/02/2017 12:12:55 73.69, -8.79 90.46 02/02/2017 12:11:43 73.62, -9.36 90.43 19.31 72
8 02/02/2017 13:02:23 -73.82, 158.56 89.41 02/02/2017 13:02:20 -73.85, 158.50 89.38 3.32 3
9 02/02/2017 13:51:52 73.89, -33.96 90.66 02/02/2017 13:52:59 73.90, -34.04 90.66 2.88 67
10 02/05/2017 07:47:13 73.78, 57.45 89.72 02/05/2017 07:46:01 73.81, 57.48 89.76 2.94 72
11 02/05/2017 08:36:40 -73.86,-135.08 90.21 02/05/2017 08:36:41 -73.88,-135.01 90.19 3.30 1
12 02/05/2017 09:26:09 73.93, 32.39 89.86 02/05/2017 09:27:20 73.93, 32.45 89.85 1.59 71
13 02/08/2017 03:21:29 73.78, 123.90 88.84 02/08/2017 03:20:23 73.79, 123.84 88.87 2.00 66
14 02/08/2017 04:10:56 -73.85, -68.63 91.09 02/08/2017 04:11:03 -73.86, -68.64 91.08 1.41 7




NCC Satellite Simultaneous Nadir Overpasses (SNOs) Prediction Service
